This is the latest recevied weather packets stored in our database for station/object K4AGR-13. If no packets are shown the sender has not sent any weather packets the latest 10 day(s).
| Time | Temp. | Humidity | Pressure | Rain* | Wind** | Luminosity | Snow |
|---|---|---|---|---|---|---|---|
| 1777412481 | 26.67° C | 54% | 1018.1 hPa | 0 mm | - | 107 W/m² | - |
| 1777412178 | 26.67° C | 54% | 1018.1 hPa | 0 mm | - | 93 W/m² | - |
| 1777411875 | 26.67° C | 54% | 1018.2 hPa | 0 mm | - | 93 W/m² | - |
| 1777411573 | 26.67° C | 54% | 1018.2 hPa | 0 mm | - | 98 W/m² | - |
| 1777411270 | 26.67° C | 54% | 1018.2 hPa | 0 mm | - | 104 W/m² | - |
| 1777410969 | 26.67° C | 54% | 1018.3 hPa | 0 mm | - | 109 W/m² | - |
| 1777410668 | 26.67° C | 54% | 1018.3 hPa | 0 mm | - | 125 W/m² | - |
| 1777410363 | 27.22° C | 54% | 1018.1 hPa | 0 mm | - | 141 W/m² | - |
| 1777410057 | 27.22° C | 54% | 1018.1 hPa | 0 mm | - | 169 W/m² | - |
| 1777409757 | 27.22° C | 53% | 1018.2 hPa | 0 mm | - | 187 W/m² | - |
| 1777409453 | 27.22° C | 54% | 1018.4 hPa | 0 mm | - | 185 W/m² | - |
| 1777409149 | 27.22° C | 53% | 1018.4 hPa | 0 mm | - | 287 W/m² | - |
| 1777408846 | 27.22° C | 53% | 1018.4 hPa | 0 mm | - | 295 W/m² | - |
| 1777408542 | 26.67° C | 54% | 1018.5 hPa | 0 mm | - | 362 W/m² | - |
| 1777408242 | 26.67° C | 54% | 1018.6 hPa | 0 mm | - | 275 W/m² | - |
| 1777407937 | 27.22° C | 55% | 1018.5 hPa | 0 mm | - | 225 W/m² | - |
| 1777407635 | 27.22° C | 54% | 1018.7 hPa | 0 mm | - | 161 W/m² | - |
| 1777407334 | 27.22° C | 54% | 1018.7 hPa | 0 mm | - | 147 W/m² | - |
| 1777407029 | 27.22° C | 54% | 1018.9 hPa | 0 mm | - | 112 W/m² | - |
| 1777406725 | 27.22° C | 54% | 1018.7 hPa | 0 mm | - | 119 W/m² | - |
| 1777406420 | 27.78° C | 53% | 1018.9 hPa | 0 mm | - | 152 W/m² | - |
| 1777406120 | 27.78° C | 54% | 1018.8 hPa | 0 mm | - | 243 W/m² | - |
| 1777405816 | 27.78° C | 54% | 1018.8 hPa | 0 mm | - | 467 W/m² | - |
| 1777405512 | 27.78° C | 55% | 1019.1 hPa | 0 mm | - | 503 W/m² | - |
| 1777405210 | 27.78° C | 54% | 1019 hPa | 0 mm | - | 462 W/m² | - |
* Rain latest hour (hover to see other rain measurements)
** Current wind speed in m/s (hover to see current wind gust speed)